Time,TemperatureF,DewpointF,PressureIn,WindDirection,WindDirectionDegrees,WindSpeedMPH,WindSpeedGustMPH,Humidity,HourlyPrecipIn,Conditions,Clouds,dailyrainin,SoftwareType,DateUTC
2013-05-01 00:01:00,69.7,29.0,29.82,NE,37,4.0,11.0,22,0.00,,,0.00,weatherlink.com 1.10,2013-05-01 07:01:00,
2013-05-01 00:16:00,69.8,29.0,29.82,NNE,13,7.0,11.0,22,0.00,,,0.00,weatherlink.com 1.10,2013-05-01 07:16:00,
2013-05-01 00:31:00,69.8,28.0,29.82,NNE,29,8.0,12.0,21,0.00,,,0.00,weatherlink.com 1.10,2013-05-01 07:31:00,
2013-05-01 00:46:00,69.9,27.0,29.82,NE,48,4.0,14.0,20,0.00,,,0.00,weatherlink.com 1.10,2013-05-01 07:46:00,
2013-05-01 01:01:00,70.2,23.0,29.82,North,5,7.0,16.0,17,0.00,,,0.00,weatherlink.com 1.10,2013-05-01 08:01:00,
2013-05-01 01:16:00,70.4,20.0,29.82,NNW,332,7.0,16.0,15,0.00,,,0.00,weatherlink.com 1.10,2013-05-01 08:16:00,
2013-05-01 01:31:00,70.3,19.0,29.83,NNW,330,5.0,16.0,14,0.00,,,0.00,weatherlink.com 1.10,2013-05-01 08:31:00,
2013-05-01 01:46:00,70.2,19.0,29.83,NE,35,7.0,15.0,14,0.00,,,0.00,weatherlink.com 1.10,2013-05-01 08:46:00,
2013-05-01 02:01:00,69.8,18.0,29.83,NNW,341,8.0,13.0,14,0.00,,,0.00,weatherlink.com 1.10,2013-05-01 09:01:00,
2013-05-01 02:16:00,69.5,20.0,29.84,NNE,23,3.0,13.0,15,0.00,,,0.00,weatherlink.com 1.10,2013-05-01 09:16:00,
2013-05-01 02:31:00,68.9,21.0,29.83,ENE,75,4.0,12.0,16,0.00,,,0.00,weatherlink.com 1.10,2013-05-01 09:31:00,
2013-05-01 02:46:00,69.0,21.0,29.83,NNE,25,6.0,11.0,16,0.00,,,0.00,weatherlink.com 1.10,2013-05-01 09:46:00,
2013-05-01 03:01:00,68.5,23.0,29.84,NNE,33,4.0,12.0,18,0.00,,,0.00,weatherlink.com 1.10,2013-05-01 10:01:00,
2013-05-01 03:16:00,67.5,25.0,29.84,NNE,26,3.0,9.0,20,0.00,,,0.00,weatherlink.com 1.10,2013-05-01 10:16:00,
2013-05-01 03:31:00,67.3,24.0,29.84,WNW,284,4.0,12.0,19,0.00,,,0.00,weatherlink.com 1.10,2013-05-01 10:31:00,
2013-05-01 03:46:00,67.6,22.0,29.84,NNE,13,7.0,13.0,18,0.00,,,0.00,weatherlink.com 1.10,2013-05-01 10:46:00,
2013-05-01 04:01:00,68.1,20.0,29.84,North,359,11.0,15.0,16,0.00,,,0.00,weatherlink.com 1.10,2013-05-01 11:01:00,
2013-05-01 04:16:00,67.6,20.0,29.84,ENE,61,5.0,13.0,16,0.00,,,0.00,weatherlink.com 1.10,2013-05-01 11:16:00,
2013-05-01 04:31:00,67.4,20.0,29.85,NE,56,5.0,11.0,16,0.00,,,0.00,weatherlink.com 1.10,2013-05-01 11:31:00,
2013-05-01 04:46:00,67.1,19.0,29.85,NE,42,3.0,9.0,16,0.00,,,0.00,weatherlink.com 1.10,2013-05-01 11:46:00,
2013-05-01 05:01:00,66.9,19.0,29.85,ENE,58,7.0,11.0,16,0.00,,,0.00,weatherlink.com 1.10,2013-05-01 12:01:00,
2013-05-01 05:16:00,67.1,19.0,29.86,NE,40,1.0,11.0,16,0.00,,,0.00,weatherlink.com 1.10,2013-05-01 12:16:00,
2013-05-01 05:31:00,67.0,19.0,29.87,NE,39,11.0,11.0,16,0.00,,,0.00,weatherlink.com 1.10,2013-05-01 12:31:00,
2013-05-01 05:46:00,65.7,23.0,29.87,NNW,342,4.0,7.0,20,0.00,,,0.00,weatherlink.com 1.10,2013-05-01 12:46:00,
2013-05-01 06:02:00,64.8,24.0,29.88,NE,39,8.0,8.0,21,0.00,,,0.00,weatherlink.com 1.10,2013-05-01 13:02:00,
2013-05-01 06:17:00,65.5,22.0,29.89,ENE,65,3.0,10.0,19,0.00,,,0.00,weatherlink.com 1.10,2013-05-01 13:17:00,
2013-05-01 06:32:00,65.0,24.0,29.89,NNE,15,6.0,8.0,21,0.00,,,0.00,weatherlink.com 1.10,2013-05-01 13:32:00,
2013-05-01 06:47:00,64.1,25.0,29.91,NE,43,4.0,7.0,23,0.00,,,0.00,weatherlink.com 1.10,2013-05-01 13:47:00,
2013-05-01 07:02:00,63.9,27.0,29.91,NNW,332,8.0,8.0,25,0.00,,,0.00,weatherlink.com 1.10,2013-05-01 14:02:00,
2013-05-01 07:17:00,64.4,29.0,29.92,NE,43,4.0,9.0,26,0.00,,,0.00,weatherlink.com 1.10,2013-05-01 14:17:00,
2013-05-01 07:32:00,65.4,28.0,29.93,NNE,16,2.0,6.0,24,0.00,,,0.00,weatherlink.com 1.10,2013-05-01 14:32:00,
2013-05-01 07:47:00,66.4,27.0,29.94,NNW,347,3.0,6.0,23,0.00,,,0.00,weatherlink.com 1.10,2013-05-01 14:47:00,
2013-05-01 08:02:00,66.9,29.0,29.94,NNE,13,2.0,6.0,24,0.00,,,0.00,weatherlink.com 1.10,2013-05-01 15:02:00,
2013-05-01 08:17:00,67.3,27.0,29.95,NNW,328,3.0,8.0,22,0.00,,,0.00,weatherlink.com 1.10,2013-05-01 15:17:00,
2013-05-01 08:32:00,68.2,28.0,29.95,NNE,25,3.0,8.0,22,0.00,,,0.00,weatherlink.com 1.10,2013-05-01 15:32:00,
2013-05-01 08:47:00,68.8,26.0,29.95,North,351,5.0,8.0,20,0.00,,,0.00,weatherlink.com 1.10,2013-05-01 15:47:00,
2013-05-01 09:02:00,69.5,27.0,29.95,NNE,12,5.0,10.0,20,0.00,,,0.00,weatherlink.com 1.10,2013-05-01 16:02:00,
2013-05-01 09:17:00,70.2,26.0,29.96,ENE,65,3.0,9.0,19,0.00,,,0.00,weatherlink.com 1.10,2013-05-01 16:17:00,
2013-05-01 09:32:00,70.9,24.0,29.96,NNE,16,6.0,8.0,17,0.00,,,0.00,weatherlink.com 1.10,2013-05-01 16:32:00,
2013-05-01 09:47:00,71.4,23.0,29.96,NNW,330,2.0,10.0,16,0.00,,,0.00,weatherlink.com 1.10,2013-05-01 16:47:00,
2013-05-01 10:02:00,72.1,25.0,29.97,ENE,68,0.0,7.0,17,0.00,,,0.00,weatherlink.com 1.10,2013-05-01 17:02:00,
2013-05-01 10:17:00,73.3,23.0,29.97,NNW,340,5.0,7.0,15,0.00,,,0.00,weatherlink.com 1.10,2013-05-01 17:17:00,
2013-05-01 10:32:00,73.4,21.0,29.97,NE,46,6.0,11.0,14,0.00,,,0.00,weatherlink.com 1.10,2013-05-01 17:32:00,
2013-05-01 10:47:00,74.3,24.0,29.98,NNE,22,3.0,8.0,15,0.00,,,0.00,weatherlink.com 1.10,2013-05-01 17:47:00,
2013-05-01 11:02:00,75.1,23.0,29.98,NE,44,6.0,11.0,14,0.00,,,0.00,weatherlink.com 1.10,2013-05-01 18:02:00,
2013-05-01 11:17:00,76.4,22.0,29.98,West,277,2.0,12.0,13,0.00,,,0.00,weatherlink.com 1.10,2013-05-01 18:17:00,
2013-05-01 11:32:00,78.0,19.0,29.98,ENE,68,6.0,9.0,11,0.00,,,0.00,weatherlink.com 1.10,2013-05-01 18:32:00,
2013-05-01 11:47:00,77.9,23.0,29.98,ENE,58,4.0,9.0,13,0.00,,,0.00,weatherlink.com 1.10,2013-05-01 18:47:00,
2013-05-01 12:02:00,79.7,23.0,29.98,NNW,335,4.0,7.0,12,0.00,,,0.00,weatherlink.com 1.10,2013-05-01 19:02:00,
2013-05-01 12:17:00,79.2,20.0,29.98,ENE,64,1.0,10.0,11,0.00,,,0.00,weatherlink.com 1.10,2013-05-01 19:17:00,
2013-05-01 12:32:00,80.1,21.0,29.98,NW,325,3.0,10.0,11,0.00,,,0.00,weatherlink.com 1.10,2013-05-01 19:32:00,
2013-05-01 12:48:00,81.2,22.0,29.98,East,97,3.0,7.0,11,0.00,,,0.00,weatherlink.com 1.10,2013-05-01 19:48:00,
2013-05-01 13:03:00,81.0,22.0,29.99,ENE,60,3.0,13.0,11,0.00,,,0.00,weatherlink.com 1.10,2013-05-01 20:03:00,
2013-05-01 13:18:00,76.7,45.0,29.99,SW,235,6.0,11.0,32,0.00,,,0.00,weatherlink.com 1.10,2013-05-01 20:18:00,
2013-05-01 13:33:00,75.3,46.0,29.99,SW,233,5.0,8.0,35,0.00,,,0.00,weatherlink.com 1.10,2013-05-01 20:33:00,
2013-05-01 13:48:00,75.5,45.0,29.99,SSE,154,3.0,11.0,34,0.00,,,0.00,weatherlink.com 1.10,2013-05-01 20:48:00,
2013-05-01 14:03:00,74.9,48.0,29.99,SSW,195,5.0,10.0,38,0.00,,,0.00,weatherlink.com 1.10,2013-05-01 21:03:00,
2013-05-01 14:18:00,73.9,48.0,29.99,ESE,110,6.0,11.0,40,0.00,,,0.00,weatherlink.com 1.10,2013-05-01 21:18:00,
2013-05-01 14:33:00,72.7,49.0,29.99,South,188,6.0,9.0,43,0.00,,,0.00,weatherlink.com 1.10,2013-05-01 21:33:00,
2013-05-01 14:48:00,72.4,49.0,29.99,SE,124,3.0,11.0,44,0.00,,,0.00,weatherlink.com 1.10,2013-05-01 21:48:00,
2013-05-01 15:03:00,71.1,49.0,29.99,South,177,5.0,11.0,45,0.00,,,0.00,weatherlink.com 1.10,2013-05-01 22:03:00,
2013-05-01 15:18:00,70.9,50.0,29.99,SSE,153,6.0,9.0,47,0.00,,,0.00,weatherlink.com 1.10,2013-05-01 22:18:00,
2013-05-01 15:33:00,72.0,49.0,29.99,SE,145,4.0,9.0,44,0.00,,,0.00,weatherlink.com 1.10,2013-05-01 22:33:00,
2013-05-01 15:48:00,72.1,50.0,29.99,SSE,162,6.0,9.0,46,0.00,,,0.00,weatherlink.com 1.10,2013-05-01 22:48:00,
2013-05-01 16:03:00,72.0,50.0,29.99,South,173,4.0,9.0,46,0.00,,,0.00,weatherlink.com 1.10,2013-05-01 23:03:00,
2013-05-01 16:18:00,73.9,51.0,29.98,SW,228,5.0,7.0,45,0.00,,,0.00,weatherlink.com 1.10,2013-05-01 23:18:00,
2013-05-01 16:33:00,74.0,51.0,29.98,SSW,193,4.0,9.0,45,0.00,,,0.00,weatherlink.com 1.10,2013-05-01 23:33:00,
2013-05-01 16:48:00,73.1,51.0,29.98,South,169,3.0,9.0,46,0.00,,,0.00,weatherlink.com 1.10,2013-05-01 23:48:00,
2013-05-01 17:03:00,72.5,51.0,29.98,SW,229,4.0,8.0,47,0.00,,,0.00,weatherlink.com 1.10,2013-05-02 00:03:00,
2013-05-01 17:18:00,73.0,52.0,29.98,WSW,243,4.0,7.0,48,0.00,,,0.00,weatherlink.com 1.10,2013-05-02 00:18:00,
2013-05-01 17:33:00,73.1,51.0,29.98,SE,125,7.0,8.0,46,0.00,,,0.00,weatherlink.com 1.10,2013-05-02 00:33:00,
2013-05-01 17:48:00,73.1,52.0,29.98,SSW,196,3.0,8.0,48,0.00,,,0.00,weatherlink.com 1.10,2013-05-02 00:48:00,
2013-05-01 18:03:00,72.4,51.0,29.98,WSW,257,2.0,8.0,48,0.00,,,0.00,weatherlink.com 1.10,2013-05-02 01:03:00,
2013-05-01 18:18:00,72.1,52.0,29.98,SSW,212,6.0,7.0,49,0.00,,,0.00,weatherlink.com 1.10,2013-05-02 01:18:00,
2013-05-01 18:33:00,69.7,51.0,29.99,SSW,207,7.0,9.0,52,0.00,,,0.00,weatherlink.com 1.10,2013-05-02 01:33:00,
2013-05-01 18:48:00,68.1,51.0,29.99,South,170,6.0,12.0,54,0.00,,,0.00,weatherlink.com 1.10,2013-05-02 01:48:00,
2013-05-01 19:03:00,65.8,50.0,29.99,South,176,5.0,9.0,58,0.00,,,0.00,weatherlink.com 1.10,2013-05-02 02:03:00,
2013-05-01 19:18:00,63.8,50.0,29.99,SSE,162,5.0,11.0,62,0.00,,,0.00,weatherlink.com 1.10,2013-05-02 02:18:00,
2013-05-01 19:33:00,62.1,50.0,30.00,SSE,158,4.0,11.0,65,0.00,,,0.00,weatherlink.com 1.10,2013-05-02 02:33:00,
2013-05-01 19:48:00,61.6,50.0,30.01,WSW,243,5.0,7.0,66,0.00,,,0.00,weatherlink.com 1.10,2013-05-02 02:48:00,
2013-05-01 20:03:00,60.1,49.0,30.01,ESE,113,4.0,7.0,68,0.00,,,0.00,weatherlink.com 1.10,2013-05-02 03:03:00,
2013-05-01 20:18:00,59.1,50.0,30.02,SSE,167,2.0,5.0,71,0.00,,,0.00,weatherlink.com 1.10,2013-05-02 03:18:00,
2013-05-01 20:33:00,58.5,49.0,30.03,SSW,210,0.0,6.0,72,0.00,,,0.00,weatherlink.com 1.10,2013-05-02 03:33:00,
2013-05-01 20:48:00,58.3,50.0,30.03,SSE,153,2.0,3.0,73,0.00,,,0.00,weatherlink.com 1.10,2013-05-02 03:48:00,
2013-05-01 21:03:00,58.2,49.0,30.03,SSE,153,0.0,3.0,72,0.00,,,0.00,weatherlink.com 1.10,2013-05-02 04:03:00,
2013-05-01 21:18:00,58.2,49.0,30.04,ESE,120,2.0,3.0,71,0.00,,,0.00,weatherlink.com 1.10,2013-05-02 04:18:00,
2013-05-01 21:33:00,58.2,49.0,30.04,South,184,0.0,1.0,71,0.00,,,0.00,weatherlink.com 1.10,2013-05-02 04:33:00,
2013-05-01 21:48:00,57.8,48.0,30.05,SSE,159,0.0,3.0,71,0.00,,,0.00,weatherlink.com 1.10,2013-05-02 04:48:00,
2013-05-01 22:03:00,57.3,49.0,30.05,South,170,1.0,4.0,73,0.00,,,0.00,weatherlink.com 1.10,2013-05-02 05:03:00,
2013-05-01 22:18:00,56.7,49.0,30.05,SE,131,0.0,1.0,74,0.00,,,0.00,weatherlink.com 1.10,2013-05-02 05:18:00,
2013-05-01 22:33:00,56.8,48.0,30.05,SSE,150,0.0,0.0,73,0.00,,,0.00,weatherlink.com 1.10,2013-05-02 05:33:00,
2013-05-01 22:48:00,56.4,47.0,30.05,SSE,150,0.0,0.0,72,0.00,,,0.00,weatherlink.com 1.10,2013-05-02 05:48:00,
2013-05-01 23:03:00,58.0,44.0,30.05,SE,139,0.0,0.0,61,0.00,,,0.00,weatherlink.com 1.10,2013-05-02 06:03:00,
2013-05-01 23:18:00,58.2,44.0,30.05,SSE,155,0.0,0.0,60,0.00,,,0.00,weatherlink.com 1.10,2013-05-02 06:18:00,
2013-05-01 23:33:00,57.3,45.0,30.05,SSE,152,0.0,0.0,64,0.00,,,0.00,weatherlink.com 1.10,2013-05-02 06:33:00,
2013-05-01 23:48:00,57.1,47.0,30.06,SSW,193,2.0,5.0,68,0.00,,,0.00,weatherlink.com 1.10,2013-05-02 06:48:00,